EW6767 Weather Reports


time (UTC)temp
F
wind
direction
speed
knots
gust
knots
rain 1hr
in
rain 24hr
in
rain mn
in
humidity
%
barometer
mb
20260903010028 81 243 0.0 0.0 0.00 0.00 0.00 84 1030.6
20260903004528 81 243 0.0 0.0 0.00 0.00 0.00 83 1030.5
20260903003027 82 243 0.0 0.0 0.00 0.00 0.00 81 1030.4
20260903001545 83 243 0.0 0.0 0.00 0.00 0.00 80 1030.4
20260903000026 84 243 0.0 0.0 0.00 0.00 0.00 78 1030.3
20260902234526 85 243 0.0 0.0 0.00 0.00 0.00 76 1030.3
20260902233026 87 243 0.0 0.0 0.00 0.00 0.00 74 1030.3
20260902231528 88 243 0.0 0.0 0.00 0.00 0.00 71 1030.3
20260902230024 90 243 0.0 1.7 0.00 0.00 0.00 65 1030.3
20260902224524 90 243 0.0 3.5 0.00 0.00 0.00 62 1030.4
20260902223023 91 25 0.0 2.6 0.00 0.00 0.00 63 1030.4
20260902221521 91 219 0.9 3.5 0.00 0.00 0.00 60 1030.4
20260902220021 92 246 1.7 5.2 0.00 0.00 0.00 59 1030.6
20260902214520 92 60 0.9 3.5 0.00 0.00 0.00 59 1030.6
20260902213019 93 248 0.9 5.2 0.00 0.00 0.00 58 1030.6
20260902211517 93 233 0.9 3.5 0.00 0.00 0.00 57 1030.7
20260902210017 93 321 0.0 4.3 0.00 0.00 0.00 57 1030.8
20260902204516 94 278 0.0 6.1 0.00 0.00 0.00 57 1030.9
20260902203014 94 51 0.9 5.2 0.00 0.00 0.00 53 1031.0
20260902201514 95 256 1.7 6.1 0.00 0.00 0.00 55 1031.1
20260902200014 96 231 0.9 3.5 0.00 0.00 0.00 53 1031.2
20260902194512 96 188 0.9 5.2 0.00 0.00 0.00 53 1031.3
20260902193009 96 240 1.7 5.2 0.00 0.00 0.00 53 1031.6
20260902191506 96 241 0.9 5.2 0.00 0.00 0.00 52 1031.7
20260902190007 96 252 0.9 7.8 0.00 0.00 0.00 53 1031.9
20260902184503 95 134 0.9 8.7 0.00 0.00 0.00 52 1032.0
20260902183001 95 230 1.7 7.0 0.00 0.00 0.00 53 1032.1
20260902181501 95 58 0.9 5.2 0.00 0.00 0.00 54 1032.1
20260902180100 96 224 1.7 6.1 0.00 0.00 0.00 54 1032.2
20260902174558 95 236 2.6 6.1 0.00 0.00 0.00 54 1032.4
20260902173057 95 244 2.6 4.3 0.00 0.00 0.00 55 1032.7
20260902171615 94 219 1.7 7.0 0.00 0.00 0.00 55 1032.8
20260902170054 94 226 0.0 5.2 0.00 0.00 0.00 57 1032.8
20260902164553 93 240 2.6 5.2 0.00 0.00 0.00 58 1033.0
20260902163052 93 241 1.7 3.5 0.00 0.00 0.00 60 1033.0
20260902161550 93 262 0.9 3.5 0.00 0.00 0.00 61 1033.0
20260902160047 92 229 0.9 4.3 0.00 0.00 0.00 63 1033.0
20260902154544 91 228 0.9 4.3 0.00 0.00 0.00 62 1033.1
20260902153044 91 249 0.0 2.6 0.00 0.00 0.00 66 1033.1
20260902151539 90 224 0.9 3.5 0.00 0.00 0.00 66 1033.2
20260902150035 88 229 0.9 6.1 0.00 0.00 0.00 69 1033.4
20260902144535 88 226 0.0 2.6 0.00 0.00 0.00 70 1033.4
20260902143031 86 246 0.9 2.6 0.00 0.00 0.00 73 1033.3
20260902141533 84 228 0.0 2.6 0.00 0.00 0.00 77 1033.3
20260902140020 83 266 0.0 1.7 0.00 0.00 0.00 80 1033.4
20260902134522 81 60 0.0 1.7 0.00 0.00 0.00 82 1033.3
20260902133011 79 274 0.0 2.6 0.00 0.00 0.00 86 1033.5
20260902131507 78 60 0.0 4.3 0.00 0.00 0.00 87 1033.5
20260902130004 77 268 0.9 3.5 0.00 0.00 0.00 89 1033.6
20260902124600 76 274 0.0 3.5 0.00 0.00 0.00 90 1033.5
20260902123100 74 242 0.0 2.6 0.00 0.00 0.00 91 1033.5
20260902121554 73 172 0.0 0.0 0.00 0.00 0.00 91 1033.4
20260902120057 73 231 0.0 0.0 0.00 0.00 0.00 91 1033.3
20260902114552 72 231 0.0 0.0 0.00 0.00 0.00 91 1033.2
20260902113051 72 231 0.0 0.0 0.00 0.00 0.00 91 1032.9
20260902111551 72 231 0.0 0.0 0.00 0.00 0.00 91 1032.9
20260902110048 72 231 0.0 0.9 0.00 0.00 0.00 91 1032.7
20260902104548 72 231 0.0 0.9 0.00 0.00 0.00 91 1032.7
20260902103047 72 229 0.0 0.0 0.00 0.00 0.00 91 1032.7
20260902101546 72 229 0.0 0.0 0.00 0.00 0.00 91 1032.6
20260902100045 72 229 0.0 0.0 0.00 0.00 0.00 91 1032.7
20260902094546 72 229 0.0 0.0 0.00 0.00 0.00 91 1032.6
20260902093043 72 229 0.0 0.0 0.00 0.00 0.00 91 1032.6
20260902091546 72 229 0.0 0.0 0.00 0.00 0.00 91 1032.4
20260902090041 72 229 0.0 0.0 0.00 0.00 0.00 91 1032.4
20260902084541 72 229 0.0 0.0 0.00 0.00 0.00 91 1032.2
20260902083038 72 229 0.0 0.0 0.00 0.00 0.00 91 1032.2
20260902081535 72 229 0.0 0.0 0.00 0.00 0.00 91 1032.1
20260902080038 72 229 0.0 0.0 0.00 0.00 0.00 91 1032.1
20260902074544 72 229 0.0 0.0 0.00 0.00 0.00 91 1032.1
20260902073033 72 229 0.0 0.0 0.00 0.00 0.00 91 1032.0
20260902071532 73 229 0.0 0.0 0.00 0.00 0.00 92 1032.0
20260902070030 73 229 0.0 0.0 0.00 0.00 0.00 92 1032.0
20260902064530 73 229 0.0 0.0 0.00 0.00 0.00 92 1032.0
20260902063053 73 229 0.0 0.0 0.00 0.00 0.00 92 1031.9
20260902061529 73 229 0.0 0.0 0.00 0.00 0.00 92 1032.0
20260902060026 74 229 0.0 0.0 0.00 0.00 0.00 92 1032.0
20260902054526 74 229 0.0 0.0 0.00 0.00 0.00 92 1032.0
20260902053028 74 229 0.0 0.0 0.00 0.00 0.00 92 1031.9
20260902051536 74 229 0.0 0.0 0.00 0.00 0.00 92 1031.9
20260902050029 74 229 0.0 0.0 0.00 0.00 0.00 92 1031.8
20260902044523 74 229 0.0 0.0 0.00 0.00 0.00 92 1031.9
20260902043020 74 229 0.0 0.0 0.00 0.00 0.00 92 1031.9
20260902041533 75 229 0.0 0.0 0.00 0.00 0.00 91 1032.0
20260902040024 75 229 0.0 0.0 0.00 0.00 0.00 91 1032.0
20260902034516 75 229 0.0 0.0 0.00 0.00 0.00 91 1032.0
20260902033015 75 229 0.0 0.0 0.00 0.00 0.00 91 1032.0
20260902031514 76 229 0.0 0.0 0.00 0.00 0.00 90 1032.0
20260902030014 76 229 0.0 0.0 0.00 0.00 0.00 90 1032.0
20260902024513 76 229 0.0 0.0 0.00 0.00 0.00 90 1032.0
20260902023012 77 229 0.0 0.0 0.00 0.00 0.00 90 1031.9
20260902021512 77 229 0.0 0.0 0.00 0.00 0.00 89 1031.8
20260902020011 78 229 0.0 0.0 0.00 0.00 0.00 89 1031.7
20260902014519 78 229 0.0 0.0 0.00 0.00 0.00 88 1031.6
20260902013012 79 229 0.0 0.0 0.00 0.00 0.00 87 1031.6